This demonstration page uses our WeatherBlox Daily Observations layout. Learn more.

Left ArrowRight Arrow

Hourly Observations for March 24, 2019

Temp ( °F °C ) Dew Point ( °F °C ) Humidity (%) Winds ( mph kmh ) Pressure ( in mb ) Visibility ( mi km ) Precip ( " mm )
6:30 am 06:30 Cloudy 39 4 32 0 75 75 E 6 9 30.19 1023 10 16 N/A
6:45 am 06:45 Cloudy 39 4 30 -1 70 70 Calm 30.19 1023 10 16 N/A
7:45 am 07:45 Mostly Cloudy 39 4 34 1 81 81 Calm 30.20 1023 10 16 N/A
8:45 am 08:45 Cloudy 41 5 34 1 76 76 Calm 30.21 1023 10 16 N/A
9:45 am 09:45 Cloudy 45 7 28 -2 53 53 Calm 30.22 1023 10 16 N/A
10:55 am 10:55 Cloudy 46 8 23 -5 40 40 Calm 30.21 1023 10 16 N/A
11:48 am 11:48 Cloudy 48 9 25 -4 40 40 Calm 30.20 1023 10 16 N/A
12:45 pm 12:45 Cloudy 52 11 25 -4 35 35 SSW 5 7 30.18 1022 10 16 N/A
1:50 pm 13:50 Cloudy 52 11 27 -3 38 38 Calm 30.16 1021 10 16 N/A
1:55 pm 13:55 Cloudy 52 11 27 -3 38 38 Calm 30.15 1021 10 16 N/A
2:47 pm 14:47 Cloudy with Light Rain 50 10 36 2 58 58 S 3 6 30.14 1021 7 11 N/A
3:48 pm 15:48 Cloudy 48 9 36 2 62 62 SSE 7 11 30.10 1019 10 16 N/A
4:22 pm 16:22 Cloudy with Light Rain 48 9 39 4 71 71 SSE 6 9 30.10 1019 5 8 N/A
4:48 pm 16:48 Cloudy with Light Rain 46 8 39 4 76 76 SE 8 13 30.08 1019 4 6 N/A
5:17 pm 17:17 Cloudy with Light Rain 45 7 39 4 81 81 ESE 3 6 30.08 1019 3 5 N/A
5:29 pm 17:29 Cloudy 45 7 41 5 87 87 ESE 3 6 30.08 1019 7 11 N/A
5:48 pm 17:48 Cloudy 46 8 41 5 82 82 Calm 30.07 1018 10 16 N/A
6:47 pm 18:47 Cloudy 46 8 41 5 82 82 Calm 30.06 1018 10 16 N/A
7:33 pm 19:33 Cloudy 46 8 43 6 87 87 Calm 30.06 1018 10 16 N/A
7:45 pm 19:45 Cloudy 46 8 43 6 87 87 Calm 30.06 1018 10 16 N/A
8:47 pm 20:47 Cloudy 46 8 45 7 93 93 Calm 30.06 1018 10 16 N/A
9:45 pm 21:45 Cloudy 46 8 45 7 93 93 NE 5 7 30.06 1018 10 16 N/A

Powered by AerisWeather